FW7322 Weather Reports


time (UTC)temp
C
wind
direction
speed
KPH
gust
KPH
rain 1hr
cm
rain 24hr
cm
rain mn
cm
humidity
%
barometer
mb
20260504192041 22 85 6.4 14.5 0.00 0.00 0.00 41 1032.2
20260504191535 22 102 1.6 19.3 0.00 0.00 0.00 43 1032.2
20260504191035 22 121 6.4 19.3 0.00 0.00 0.00 43 1032.3
20260504190537 22 87 4.8 20.9 0.00 0.00 0.00 44 1032.3
20260504190047 22 107 6.4 20.9 0.00 0.00 0.00 42 1032.5
20260504185534 22 94 4.8 14.5 0.00 0.00 0.00 42 1032.4
20260504185033 22 96 3.2 14.5 0.00 0.00 0.00 45 1032.6
20260504184534 22 86 1.6 27.4 0.00 0.00 0.00 42 1032.6
20260504184031 21 86 1.6 27.4 0.00 0.00 0.00 44 1032.7
20260504183530 21 33 1.6 27.4 0.00 0.00 0.00 44 1032.8
20260504183033 21 83 6.4 27.4 0.00 0.00 0.00 47 1032.9
20260504182531 21 107 3.2 19.3 0.00 0.00 0.00 46 1032.8
20260504182031 21 178 8.0 19.3 0.00 0.00 0.00 45 1032.8
20260504181526 21 91 6.4 17.7 0.00 0.00 0.00 45 1033.1
20260504181026 21 10 4.8 17.7 0.00 0.00 0.00 42 1033.2
20260504180529 21 99 4.8 16.1 0.00 0.00 0.00 41 1033.2
20260504180024 21 66 4.8 16.1 0.00 0.00 0.00 49 1033.4
20260504175523 21 123 1.6 16.1 0.00 0.00 0.00 46 1033.4
20260504175023 20 100 6.4 16.1 0.00 0.00 0.00 43 1033.6
20260504174523 20 101 3.2 12.9 0.00 0.00 0.00 46 1033.5
20260504174023 20 92 0.0 8.0 0.00 0.00 0.00 44 1033.6
20260504173522 20 103 4.8 17.7 0.00 0.00 0.00 43 1033.7
20260504173021 21 127 3.2 17.7 0.00 0.00 0.00 48 1033.8
20260504172521 21 79 1.6 20.9 0.00 0.00 0.00 48 1033.7
20260504172021 21 122 3.2 20.9 0.00 0.00 0.00 47 1033.8
20260504171520 21 67 1.6 14.5 0.00 0.00 0.00 50 1033.9
20260504171023 20 79 4.8 14.5 0.00 0.00 0.00 47 1033.9
20260504170519 20 94 3.2 19.3 0.00 0.00 0.00 46 1033.9
20260504151100 17 95 3.2 17.7 0.00 0.00 0.00 48 1035.7
20260504150600 17 82 6.4 19.3 0.00 0.00 0.00 43 1035.7
20260504141052 16 91 1.6 14.5 0.00 0.00 0.00 45 1036.1
20260504140550 16 89 3.2 16.1 0.00 0.00 0.00 44 1036.0
20260504130535 11 86 0.0 6.4 0.00 0.00 0.00 64 1036.6
20260504110522 5 90 0.0 0.0 0.00 0.00 0.00 77 1037.3
20260504100518 2 90 0.0 0.0 0.00 0.00 0.00 81 1037.0
20260504081604 6 91 0.0 0.0 0.00 0.00 0.00 69 1037.5
20260504081057 6 91 0.0 3.2 0.00 0.00 0.00 68 1037.5
20260504080557 7 91 0.0 4.8 0.00 0.00 0.00 67 1037.4
20260504050539 7 79 0.0 4.8 0.00 0.00 0.00 64 1037.4
20260504045541 8 85 0.0 3.2 0.00 0.00 0.00 64 1037.6
20260504045040 8 91 0.0 3.2 0.00 0.00 0.00 63 1037.6
20260504044536 8 85 0.0 4.8 0.00 0.00 0.00 63 1037.6
20260504044036 8 81 1.6 4.8 0.00 0.00 0.00 63 1037.4
20260504043536 8 91 0.0 4.8 0.00 0.00 0.00 63 1037.4
20260504043034 8 89 0.0 3.2 0.00 0.00 0.00 62 1037.5
20260504042532 8 97 0.0 3.2 0.00 0.00 0.00 62 1037.5
20260504042033 8 82 0.0 4.8 0.00 0.00 0.00 61 1037.4
20260504041532 8 76 1.6 4.8 0.00 0.00 0.00 61 1037.4
20260504041032 8 86 0.0 0.0 0.00 0.00 0.00 61 1037.3
20260504040531 8 85 0.0 0.0 0.00 0.00 0.00 62 1037.3
20260504040030 8 85 0.0 0.0 0.00 0.00 0.00 60 1037.3
20260504035530 8 86 0.0 0.0 0.00 0.00 0.00 61 1037.3
20260504035030 8 86 0.0 0.0 0.00 0.00 0.00 60 1037.2
20260504034529 8 86 0.0 0.0 0.00 0.00 0.00 60 1037.1
20260504034033 8 85 0.0 0.0 0.00 0.00 0.00 59 1037.0
20260504033530 9 84 0.0 3.2 0.00 0.00 0.00 59 1037.1
20260504033032 9 82 0.0 4.8 0.00 0.00 0.00 59 1037.0
20260504032528 9 82 0.0 4.8 0.00 0.00 0.00 58 1037.1
20260504032028 9 82 0.0 0.0 0.00 0.00 0.00 59 1037.1
20260504031530 9 82 0.0 0.0 0.00 0.00 0.00 58 1037.0
20260504031032 9 82 0.0 0.0 0.00 0.00 0.00 58 1037.0
20260504030528 9 82 0.0 0.0 0.00 0.00 0.00 58 1036.9
20260504030028 9 82 0.0 0.0 0.00 0.00 0.00 58 1037.0
20260504025528 9 79 0.0 6.4 0.00 0.00 0.00 58 1037.1
20260504025028 9 79 0.0 6.4 0.00 0.00 0.00 57 1037.0
20260504024528 9 104 0.0 4.8 0.00 0.00 0.00 58 1037.0
20260504024029 9 91 0.0 0.0 0.00 0.00 0.00 58 1036.9
20260504023528 9 91 0.0 1.6 0.00 0.00 0.00 58 1036.9
20260504023028 10 89 0.0 3.2 0.00 0.00 0.00 58 1037.0
20260504022528 10 86 0.0 3.2 0.00 0.00 0.00 57 1037.0
20260504022027 10 87 0.0 3.2 0.00 0.00 0.00 57 1037.1
20260504021529 10 86 0.0 4.8 0.00 0.00 0.00 56 1037.1
20260504021027 10 79 0.0 6.4 0.00 0.00 0.00 55 1037.0
20260504020527 10 101 0.0 6.4 0.00 0.00 0.00 55 1037.0
20260504020029 10 90 0.0 4.8 0.00 0.00 0.00 54 1037.0
20260504015526 10 86 1.6 4.8 0.00 0.00 0.00 54 1037.0
20260504015031 10 89 0.0 4.8 0.00 0.00 0.00 55 1037.0
20260504014540 10 88 1.6 4.8 0.00 0.00 0.00 54 1036.9
20260504014027 10 86 0.0 4.8 0.00 0.00 0.00 54 1036.9
20260504013526 10 91 1.6 4.8 0.00 0.00 0.00 53 1036.9
20260504013026 10 84 0.0 3.2 0.00 0.00 0.00 54 1036.8
20260504012527 10 75 0.0 0.0 0.00 0.00 0.00 54 1036.8
20260504012024 10 81 0.0 0.0 0.00 0.00 0.00 54 1036.8
20260504011525 10 89 0.0 0.0 0.00 0.00 0.00 54 1036.8
20260504011024 11 91 0.0 3.2 0.00 0.00 0.00 53 1036.6
20260504010527 11 95 0.0 3.2 0.00 0.00 0.00 53 1036.5
20260504010025 11 86 0.0 3.2 0.00 0.00 0.00 52 1036.5
20260504005524 11 82 0.0 4.8 0.00 0.00 0.00 51 1036.5
20260504005026 11 84 0.0 4.8 0.00 0.00 0.00 51 1036.5
20260504004524 11 82 0.0 3.2 0.00 0.00 0.00 50 1036.5
20260504004026 11 83 0.0 1.6 0.00 0.00 0.00 51 1036.5
20260504003524 11 82 0.0 1.6 0.00 0.00 0.00 49 1036.4
20260504003024 12 80 0.0 3.2 0.00 0.00 0.00 48 1036.3
20260504002523 12 80 0.0 4.8 0.00 0.00 0.00 47 1036.3
20260504002023 12 93 0.0 6.4 0.00 0.00 0.00 46 1036.2
20260504001525 12 89 1.6 6.4 0.00 0.00 0.00 46 1036.2
20260504001023 12 90 0.0 4.8 0.00 0.00 0.00 47 1036.2
20260504000522 12 98 0.0 9.7 0.00 0.00 0.00 46 1036.2
20260504000037 13 96 1.6 9.7 0.00 0.00 0.00 44 1036.1
20260503235522 13 89 1.6 11.3 0.00 0.00 0.00 44 1036.1
20260503235024 13 82 3.2 11.3 0.00 0.00 0.00 42 1036.0
20260503234523 13 73 0.0 9.7 0.00 0.00 0.00 43 1036.0
20260503234023 13 114 1.6 17.7 0.00 0.00 0.00 43 1035.9
20260503233522 14 83 3.2 17.7 0.00 0.00 0.00 40 1035.8
20260503233024 14 79 1.6 9.7 0.00 0.00 0.00 42 1035.8
20260503232521 14 100 3.2 11.3 0.00 0.00 0.00 42 1035.8
20260503232021 14 100 1.6 14.5 0.00 0.00 0.00 41 1035.8
20260503231521 14 157 3.2 14.5 0.00 0.00 0.00 42 1035.8
20260503231021 14 75 0.0 14.5 0.00 0.00 0.00 44 1035.7
20260503230521 14 68 6.4 14.5 0.00 0.00 0.00 42 1035.7
20260503230021 14 94 3.2 12.9 0.00 0.00 0.00 41 1035.6
20260503225520 14 86 1.6 12.9 0.00 0.00 0.00 41 1035.7
20260503225020 14 91 3.2 11.3 0.00 0.00 0.00 42 1035.7
20260503224520 14 87 3.2 11.3 0.00 0.00 0.00 41 1035.7
20260503224023 14 65 4.8 20.9 0.00 0.00 0.00 40 1035.7
20260503223519 15 117 3.2 20.9 0.00 0.00 0.00 39 1035.6
20260503223019 15 71 4.8 12.9 0.00 0.00 0.00 39 1035.7
20260503222519 15 86 1.6 22.5 0.00 0.00 0.00 40 1035.8
20260503222019 15 94 4.8 25.7 0.00 0.00 0.00 39 1035.6
20260503221519 15 75 11.3 25.7 0.00 0.00 0.00 36 1035.5
20260503221021 15 110 4.8 14.5 0.00 0.00 0.00 39 1035.6
20260503220518 15 91 3.2 14.5 0.00 0.00 0.00 38 1035.7
20260503220021 14 108 4.8 24.1 0.00 0.00 0.00 39 1035.7
20260503215519 15 67 4.8 24.1 0.00 0.00 0.00 40 1035.9
20260503215018 15 140 3.2 16.1 0.00 0.00 0.00 38 1035.9
20260503214526 15 94 3.2 17.7 0.00 0.00 0.00 40 1035.7
20260503214017 15 64 6.4 25.7 0.00 0.00 0.00 37 1035.7
20260503213517 16 85 0.0 25.7 0.00 0.00 0.00 38 1035.5
20260503213018 15 91 6.4 20.9 0.00 0.00 0.00 36 1035.6
20260503212521 15 79 3.2 16.1 0.00 0.00 0.00 39 1035.5
20260503212016 15 106 3.2 16.1 0.00 0.00 0.00 40 1035.4
20260503211516 15 70 6.4 19.3 0.00 0.00 0.00 39 1035.4
20260503211017 15 82 6.4 19.3 0.00 0.00 0.00 38 1035.4
20260503210516 15 72 4.8 14.5 0.00 0.00 0.00 38 1035.6
20260503210036 16 82 3.2 14.5 0.00 0.00 0.00 41 1035.4
20260503205519 16 82 1.6 19.3 0.00 0.00 0.00 40 1035.6
20260503205015 15 82 3.2 19.3 0.00 0.00 0.00 40 1035.5
20260503204516 15 68 3.2 19.3 0.00 0.00 0.00 38 1035.5
20260503204018 15 103 6.4 19.3 0.00 0.00 0.00 38 1035.4
20260503203514 16 81 4.8 19.3 0.00 0.00 0.00 43 1035.5
20260503203018 15 78 4.8 16.1 0.00 0.00 0.00 40 1035.4
20260503202513 15 84 6.4 16.1 0.00 0.00 0.00 37 1035.7
20260503202013 15 68 4.8 25.7 0.00 0.00 0.00 40 1035.4
20260503201513 15 64 6.4 25.7 0.00 0.00 0.00 41 1035.3
20260503201011 15 103 3.2 12.9 0.00 0.00 0.00 38 1035.5
20260503200510 15 248 1.6 17.7 0.00 0.00 0.00 43 1035.7
20260503200015 15 110 6.4 17.7 0.00 0.00 0.00 41 1035.8
20260503195508 15 105 3.2 14.5 0.00 0.00 0.00 40 1035.9
20260503195008 15 81 6.4 20.9 0.00 0.00 0.00 37 1036.0
20260503194507 14 68 4.8 20.9 0.00 0.00 0.00 38 1036.1
20260503194007 14 85 8.0 17.7 0.00 0.00 0.00 39 1036.2
20260503193507 15 100 3.2 17.7 0.00 0.00 0.00 39 1036.4
20260503193006 15 82 3.2 25.7 0.00 0.00 0.00 39 1036.3
20260503192505 14 79 3.2 25.7 0.00 0.00 0.00 41 1036.5